User: anonymous   Login
Location: Bittelbronn
(48.4454°N, 8.5870°E)
Time: 18:01:10
(UTC+00:00)
Language:

Cosmos 1570 Rocket - Orbit

View from above orbital plane
View from above orbital plane
View from above satellite
View from above satellite

Ground track
Ground track

The orbit data is extracted from the following two-line orbital elements,

1 15032U 84056B   24205.21978924  .00000649  00000-0  23446-3 0  9990
2 15032  74.0707  14.4556 0017894 243.3460 116.5860 14.35487723 98844
Epoch (UTC): 23 July 2024 05:16:29
Eccentricity: 0.0017894
inclination: 74.0707°
perigee height: 760 km
apogee height: 786 km
right ascension of ascending node: 14.4556°
argument of perigee: 243.3460°
revolutions per day: 14.35487723
mean anomaly at epoch: 116.5860°
orbit number at epoch: 9884

The dashed part of the orbit path shows where the satellite is in the earth's shadow,  

DLR